User: anonymous   Login
Location: Unspecified
(35.6961°N, 0.0000°E)
Time: 22:25:28
(UTC+00:00)
Language:

Transit 2A - Orbit

View from above orbital plane
View from above orbital plane
View from above satellite
View from above satellite

Ground track
Ground track

The orbit data is extracted from the following two-line orbital elements,

1    45U 60007A   19139.03745393 -.00000053  00000-0  14021-4 0  9990
2    45  66.6947 342.8890 0262395 244.2047 113.1771 14.33637034 66022
Epoch (UTC): 19 May 2019 00:53:56
Eccentricity: 0.0262395
inclination: 66.6947°
perigee height: 592 km
apogee height: 967 km
right ascension of ascending node: 342.8890°
argument of perigee: 244.2047°
revolutions per day: 14.33637034
mean anomaly at epoch: 113.1771°
orbit number at epoch: 6602

The dashed part of the orbit path shows where the satellite is in the earth's shadow,  

DLR